Wind_Speed
33 33 32 31 28 27 26 23 22 23 24 24 24 26 27 29 30 29 29 28 28 28 28 28 27 25 24 24 24 25 24 23 22 19 16 15 14 13 13 14 15 15 14 12 12 12 12 10 9 7 7 9 9 8 5 3 4 6 8 10 13 14 15 16 11 6 7 8 10 13 15 16 20 23 25 25 25 24 21 18 16 16 15 15 14
33 33 32 32 31 30 29 27 26 25 24 24 23 23 25 28 30 29 28 28 28 28 28 28 27 25 24 24 23 24 25 24 22 20 17 16 14 13 12 13 15 16 15 13 12 13 11 8 6 5 5 7 8 8 6 3 3 6 8 11 14 14 14 15 13 9 7 7 8 11 14 16 19 21 25 27 26 26 24 22 20 18 16 15 15
35 35 33 33 33 34 34 33 32 29 28 28 26 25 25 28 29 29 29 28 28 28 28 28 27 25 24 23 23 24 25 24 22 20 18 17 15 13 13 14 16 16 15 14 14 12 9 6 4 4 4 6 7 7 6 5 5 6 8 11 13 14 14 15 14 12 9 8 9 11 13 17 19 20 24 26 26 27 26 24 23 20 17 16 16
35 36 35 33 32 33 35 34 33 31 32 32 30 28 26 27 29 29 29 29 29 29 28 28 27 25 23 23 23 24 24 23 22 20 18 17 15 14 14 16 16 16 16 15 13 9 6 5 4 3 3 4 5 5 5 6 7 8 9 11 12 13 13 14 15 14 11 9 10 12 13 16 18 19 23 25 25 27 27 25 23 21 19 18 17
33 34 34 33 32 32 34 33 33 35 36 33 31 29 27 26 28 29 29 30 30 29 28 28 28 25 22 21 23 23 23 22 21 19 18 17 15 14 15 16 17 17 15 14 11 7 4 4 4 3 3 4 4 4 5 5 6 7 8 9 10 12 12 13 15 15 13 11 11 11 12 15 16 17 21 25 25 25 26 25 24 22 20 19 19
31 31 32 33 33 34 34 34 35 37 37 33 29 28 27 27 29 30 30 30 30 28 27 29 29 24 19 19 21 21 21 20 19 18 17 15 14 13 14 15 16 16 15 13 10 7 4 3 4 4 4 4 3 3 5 4 4 5 6 6 8 10 11 12 13 15 14 12 11 11 12 15 16 15 19 23 25 25 25 24 23 22 21 20 20
30 30 32 34 35 35 36 36 36 35 34 31 29 29 28 28 30 31 31 30 28 27 27 29 28 21 16 17 20 19 19 18 17 16 15 13 12 12 12 13 14 15 16 13 9 6 4 5 5 5 4 3 2 4 6 5 5 5 6 7 8 9 10 11 12 13 13 12 11 11 12 14 15 15 17 21 22 23 25 24 23 22 22 21 21
31 32 33 33 35 37 38 38 36 33 30 28 29 30 29 30 30 30 30 29 28 27 27 29 27 20 16 18 20 20 19 18 16 15 14 13 13 13 14 16 13 12 14 12 9 7 6 6 7 6 5 3 3 5 5 5 5 6 6 7 8 10 11 12 12 12 12 12 11 11 12 13 13 13 16 19 20 19 22 25 25 24 24 22 22
32 32 32 33 35 37 36 33 29 27 26 27 30 31 29 29 30 30 29 28 28 28 27 28 26 19 17 20 21 21 21 19 17 15 14 14 15 15 16 16 11 9 12 12 9 8 7 7 6 6 4 3 3 5 5 4 5 5 5 5 6 8 10 11 12 12 12 12 10 10 12 13 13 15 18 22 22 19 21 23 22 23 23 22 21
32 32 32 34 35 34 31 27 24 24 26 28 30 29 28 29 29 29 28 29 29 28 27 29 25 18 17 21 22 22 21 19 17 16 15 15 15 15 14 12 8 9 13 13 11 10 9 7 6 3 3 4 4 6 6 5 4 5 5 4 4 5 6 7 9 10 12 12 12 12 14 14 16 18 19 21 20 18 20 22 20 19 19 18 17
32 32 33 34 32 28 26 25 25 27 28 30 29 28 28 29 28 28 28 29 29 28 28 29 23 16 18 21 22 22 21 20 18 16 15 16 15 13 12 10 9 11 14 13 12 12 11 10 8 3 4 6 6 7 8 7 6 6 5 4 4 5 6 6 6 8 10 11 12 14 15 15 17 18 18 18 19 18 19 22 21 19 19 17 13
30 31 32 30 26 24 25 26 27 28 29 30 29 29 29 28 28 28 28 28 28 28 29 28 20 15 17 19 20 21 20 19 17 14 13 15 14 12 12 11 11 14 15 12 12 14 13 12 9 5 4 6 7 8 8 8 7 7 6 5 5 5 5 5 5 6 8 9 11 14 15 15 16 18 18 18 19 19 17 20 23 22 22 22 18
29 29 27 24 23 25 26 27 28 28 29 29 28 29 29 28 27 28 27 28 28 28 29 25 17 13 16 17 18 19 18 16 15 12 12 11 10 11 11 10 13 16 14 12 13 14 13 12 10 8 7 8 9 10 10 10 10 8 6 5 5 5 5 4 4 4 6 7 10 12 13 13 14 16 17 18 18 19 19 20 23 24 23 24 21
28 26 23 21 23 25 27 28 27 27 28 28 28 28 27 27 28 27 27 28 28 29 27 21 14 12 14 16 18 19 17 15 13 12 11 10 10 12 11 11 14 16 14 13 13 14 13 13 12 11 10 10 11 11 12 12 11 8 7 6 5 5 4 3 3 2 3 4 6 8 9 10 11 12 14 16 18 19 20 20 22 24 23 20 16
25 23 22 22 23 25 26 27 27 27 28 28 28 28 27 28 28 28 29 30 29 29 25 17 12 12 14 16 18 19 17 15 12 11 11 12 13 14 13 13 16 17 15 14 14 14 14 13 12 11 11 11 12 12 12 12 10 8 7 6 5 5 4 3 3 2 2 2 2 3 5 7 8 8 10 14 17 17 18 19 20 22 21 15 11
22 21 22 23 25 26 27 27 28 28 29 29 29 29 29 29 29 30 30 30 30 28 21 13 11 13 15 17 19 19 17 14 12 10 12 14 15 15 15 17 18 17 15 14 14 14 13 12 11 11 11 11 12 13 13 12 10 8 8 7 6 6 5 5 4 4 3 3 3 3 4 4 5 5 7 10 14 16 16 15 16 18 17 12 9
21 22 23 25 27 27 28 29 29 29 29 29 29 29 30 30 31 31 31 30 29 25 16 11 11 14 16 18 19 18 16 14 12 12 14 16 17 17 18 19 17 15 14 14 14 13 12 11 11 11 11 12 13 14 13 12 10 9 9 8 8 8 8 8 8 7 7 6 6 5 5 4 3 4 5 7 9 12 14 14 16 18 17 14 10
22 23 24 26 28 29 29 29 30 29 29 29 29 29 30 31 32 32 32 30 26 19 13 12 13 14 17 20 20 18 16 14 14 15 17 18 19 20 21 19 17 15 14 14 14 13 12 12 11 11 12 14 15 15 14 12 10 9 9 9 10 11 11 11 10 9 9 8 7 7 7 6 6 6 6 6 5 7 10 12 16 19 18 15 12
23 24 25 26 28 28 28 28 29 28 27 27 27 29 31 31 31 31 30 26 19 14 13 14 15 17 19 21 20 18 16 14 15 17 19 20 20 22 21 18 16 15 15 15 15 13 12 13 12 12 13 15 17 16 14 11 10 10 10 10 12 12 12 11 9 8 8 7 6 6 6 6 6 6 7 8 7 6 5 7 13 18 17 17 18
23 23 24 25 27 27 26 26 27 26 25 25 26 28 29 29 30 29 25 19 14 13 14 15 17 20 21 22 20 17 16 15 16 19 21 21 22 22 19 17 16 16 16 16 16 15 14 13 12 12 13 15 16 15 13 11 10 10 9 10 11 12 12 10 8 6 5 5 5 5 5 6 6 7 8 9 8 6 3 5 12 14 12 15 19
21 22 23 25 26 26 26 25 25 25 24 24 24 25 27 28 27 23 19 15 14 15 16 19 21 22 22 21 20 18 17 17 19 22 22 22 22 20 16 15 16 17 17 17 17 15 14 13 12 13 14 15 15 14 13 11 10 9 8 8 8 11 12 10 8 6 5 6 6 6 6 7 7 7 8 7 7 6 5 7 10 8 7 12 16
20 22 24 24 24 24 24 24 23 23 23 23 23 24 24 22 19 17 17 17 18 18 20 23 23 20 19 19 19 18 17 18 21 24 23 23 21 17 15 16 17 17 17 18 17 14 13 12 13 14 15 16 16 14 13 11 10 9 8 7 8 10 10 9 8 8 8 8 8 9 8 8 9 9 9 8 9 9 8 8 8 6 7 10 12
22 22 23 24 24 24 24 24 24 23 23 24 24 22 20 18 16 16 18 19 20 20 22 23 21 17 16 17 18 17 17 19 22 25 23 20 18 15 16 18 17 16 17 19 17 15 13 13 14 15 16 16 16 14 13 11 10 9 9 8 9 10 10 10 10 10 10 11 11 11 11 10 11 13 13 12 12 11 11 10 9 9 10 11 10
23 23 23 24 24 25 24 25 25 25 24 23 21 18 17 18 18 17 18 19 20 20 21 22 20 17 15 15 17 17 18 19 22 23 20 17 16 17 19 19 16 15 16 17 16 15 15 15 15 15 16 16 15 14 13 12 10 10 9 9 10 11 11 11 11 12 12 12 12 13 13 13 14 15 16 16 15 14 14 13 12 12 12 12 12
24 25 25 25 25 25 25 25 25 25 23 21 19 18 19 20 19 18 18 18 20 21 21 22 20 17 17 16 17 19 20 20 21 22 21 20 21 21 20 18 15 14 16 16 16 16 16 16 16 16 16 16 15 15 14 13 11 10 10 10 11 12 11 12 13 14 14 14 14 14 15 16 17 18 18 17 17 16 16 16 15 14 13 14 15
26 26 26 26 27 26 24 24 23 22 20 19 17 17 19 20 20 19 20 19 20 21 22 21 18 18 19 19 20 21 22 23 24 25 26 25 25 22 19 17 16 15 16 17 17 17 17 17 17 17 16 15 15 15 14 13 12 11 11 12 12 12 11 12 14 16 17 17 15 16 18 18 19 19 18 18 17 17 16 16 17 16 14 14 15
27 27 27 28 28 27 25 25 23 22 20 18 17 16 18 21 22 21 21 20 19 20 21 20 20 22 22 23 24 24 24 25 27 29 29 27 24 21 19 19 18 18 19 19 18 19 19 18 17 17 17 16 16 15 15 14 13 13 13 13 12 11 11 12 14 16 17 17 16 18 19 19 19 19 17 17 17 17 16 15 16 16 13 11 11
28 27 28 28 27 26 27 27 25 23 21 19 18 17 17 19 21 22 22 21 19 20 22 23 24 27 27 27 26 24 24 26 28 29 27 25 22 21 21 21 20 21 21 20 19 17 17 16 15 16 17 18 17 17 16 15 14 14 14 13 13 13 13 13 13 15 16 17 18 19 19 19 18 18 16 16 17 17 15 13 12 12 10 8 9
28 27 27 26 25 26 27 27 26 25 23 21 19 16 15 16 19 20 20 21 21 21 23 26 28 30 31 31 30 28 27 28 28 25 22 21 20 21 22 22 21 21 21 20 19 17 16 16 17 17 18 18 18 18 17 16 16 15 15 15 15 16 15 14 15 16 17 18 19 20 20 19 18 17 17 17 17 15 12 9 8 8 8 7 9
27 26 26 26 26 27 27 26 26 26 25 24 21 17 14 14 16 17 17 17 18 19 20 23 25 25 26 28 29 27 26 26 25 21 19 18 18 19 20 20 20 21 21 20 19 18 18 18 18 19 19 19 19 18 18 18 19 19 18 18 18 17 16 15 16 17 18 18 20 20 19 19 18 17 17 17 15 13 10 7 7 8 7 7 8
23 23 25 26 27 27 27 27 27 26 25 25 23 21 18 16 14 13 14 14 15 17 18 18 16 15 16 19 21 20 18 18 20 19 18 18 17 16 17 18 19 20 21 20 19 19 19 19 19 19 20 19 19 18 18 19 20 21 21 20 19 18 17 16 16 17 18 18 19 20 19 18 18 18 17 15 13 11 9 8 9 9 8 7 8
22 21 21 23 24 24 25 26 27 26 25 25 24 24 24 24 21 17 15 15 17 18 17 15 13 13 12 12 15 17 15 14 16 17 16 17 17 16 15 16 18 19 20 20 19 19 19 20 20 20 20 19 18 18 18 19 21 22 23 23 20 19 19 17 16 16 17 18 19 19 18 17 17 17 16 13 10 11 11 10 11 9 8 8 9
23 21 21 22 23 23 25 26 26 26 27 27 26 25 26 27 27 24 22 21 20 20 20 18 16 15 12 8 9 14 15 15 16 16 17 18 18 16 14 14 16 18 19 19 18 18 18 19 18 19 19 19 19 19 18 19 20 22 22 22 21 20 19 17 15 15 16 17 18 18 18 17 17 16 14 11 10 11 12 11 10 9 8 9 10
22 22 23 24 25 25 25 25 25 25 26 27 26 23 22 25 27 26 25 24 22 21 22 21 18 15 13 11 11 13 14 15 16 16 16 17 16 15 14 15 16 17 17 16 16 17 18 17 17 17 18 19 19 19 19 19 20 20 20 20 19 18 17 16 15 15 16 18 19 20 19 18 16 15 14 12 10 10 9 9 9 8 8 10 12
21 22 23 24 24 25 25 26 26 26 25 24 23 22 22 22 23 25 26 25 24 24 23 21 20 17 15 14 14 13 13 13 13 13 13 14 14 14 14 15 16 16 14 13 13 14 16 16 16 17 18 19 19 19 19 20 20 19 19 18 17 16 15 15 15 16 17 20 22 22 20 18 16 15 14 11 8 6 6 7 8 8 9 11 13
23 23 23 23 24 25 25 25 26 26 25 24 23 23 24 24 24 26 28 29 29 28 25 23 22 20 18 17 16 15 15 14 14 13 13 13 13 14 14 15 16 15 13 11 11 12 13 14 15 17 18 19 19 19 20 20 19 17 16 15 14 14 14 14 16 17 19 21 23 22 20 19 18 15 12 8 5 5 5 6 7 8 9 11 13
23 24 24 24 26 26 25 25 26 26 27 26 26 25 25 26 28 30 30 30 30 29 26 24 24 23 21 19 18 17 16 16 16 15 14 14 12 10 10 11 13 13 12 11 11 12 13 13 14 16 17 18 19 20 20 19 18 15 13 12 11 12 14 15 16 18 21 23 23 22 21 20 17 13 9 6 6 7 7 7 7 9 11 12 13
23 23 24 26 28 29 29 28 27 27 27 26 26 27 28 29 31 31 31 30 29 27 24 23 24 24 22 20 18 18 17 17 17 16 15 13 11 8 8 9 10 11 12 12 11 12 13 13 13 15 16 17 18 19 19 18 16 14 13 12 13 14 15 16 18 20 22 23 23 22 20 17 12 9 8 7 7 8 8 9 9 10 13 14 13
24 24 25 28 30 31 31 30 28 27 27 25 26 29 31 31 31 30 29 28 26 25 24 23 23 23 22 20 20 19 19 19 18 17 15 12 10 9 9 9 10 11 12 12 12 11 11 12 12 13 14 16 17 18 18 17 16 14 14 14 16 17 18 20 22 23 23 23 22 19 15 12 10 9 8 7 7 8 9 10 11 12 14 14 12
26 25 26 28 29 29 29 28 27 27 27 26 27 29 30 29 29 28 28 27 26 25 24 23 21 20 20 21 20 19 19 19 18 16 14 12 11 10 9 9 10 11 11 11 11 11 11 12 12 12 14 15 16 17 17 16 16 16 17 18 19 20 21 22 23 23 23 21 19 15 12 11 10 10 9 8 7 8 9 10 11 11 12 12 11
25 25 25 26 27 27 27 27 26 26 26 27 28 29 29 28 27 27 27 26 25 24 24 22 20 17 16 16 15 15 16 18 17 14 13 12 11 11 10 9 9 10 10 11 11 11 11 12 12 13 14 15 16 16 17 16 17 19 21 21 21 22 22 22 21 21 19 17 15 13 12 12 11 10 10 9 9 9 9 10 11 11 10 10 9
24 24 23 23 24 25 26 25 25 25 27 27 27 27 27 26 26 26 26 25 24 24 23 22 18 16 14 12 11 12 14 16 15 13 13 12 11 11 10 9 9 9 10 10 11 11 12 13 13 13 14 14 15 16 17 18 20 22 22 21 20 21 21 21 19 17 15 14 14 14 13 11 11 10 10 10 10 10 10 10 10 10 9 8 8
23 23 22 22 23 24 24 23 23 24 25 25 24 24 24 24 24 24 24 23 22 22 22 20 18 16 15 13 11 11 13 14 14 14 13 13 12 11 10 10 10 10 10 10 10 11 12 12 13 13 13 13 14 14 15 18 21 21 20 18 18 19 20 18 16 15 15 15 14 13 11 11 10 10 10 10 10 11 11 11 10 10 9 8 7
23 23 23 23 23 24 23 22 22 23 22 22 22 21 21 22 22 21 22 21 20 20 20 19 17 16 15 13 12 13 14 14 14 13 13 12 12 12 12 11 11 11 11 11 10 10 11 11 13 14 14 13 13 14 15 17 18 18 17 17 17 17 17 16 16 16 15 14 13 12 11 11 11 10 10 11 11 11 11 11 10 10 9 8 7
23 22 23 23 24 24 23 22 22 22 21 21 21 20 19 20 20 20 20 20 20 20 19 17 15 15 15 13 12 13 14 13 13 13 13 13 13 13 13 13 12 12 12 12 11 10 10 11 12 14 15 15 15 15 16 17 16 14 14 14 14 15 16 16 16 15 12 10 10 11 11 11 10 10 11 11 11 10 10 9 9 9 8 8 7
22 22 23 23 23 22 21 20 20 20 20 20 20 19 18 19 19 19 19 19 19 19 18 16 15 14 14 13 12 13 13 13 13 13 13 13 14 14 14 14 13 13 13 12 12 11 11 12 13 15 17 17 18 18 17 16 14 13 11 11 12 14 16 15 12 10 9 8 8 9 10 10 10 11 11 11 10 9 8 8 8 8 7 7 6
21 21 21 21 21 20 19 19 19 19 19 19 19 18 18 18 18 18 18 17 17 16 16 15 14 14 13 12 12 12 12 13 13 13 13 14 14 14 14 14 15 14 14 14 13 13 13 14 15 17 19 19 19 17 15 14 13 12 12 12 13 14 13 10 8 8 8 8 7 6 7 9 11 11 11 11 10 9 8 8 8 7 6 6 5
20 20 20 19 19 18 18 17 18 18 18 18 18 18 18 18 18 17 16 15 14 14 14 14 13 13 12 11 11 11 12 12 13 13 13 13 13 14 14 14 15 15 15 15 14 14 15 16 17 18 19 18 16 14 13 13 13 13 13 14 13 11 8 7 7 8 9 7 6 5 6 8 10 11 11 10 9 8 7 8 8 7 6 6 5
18 18 18 17 17 16 15 16 16 17 17 18 18 17 17 16 16 15 14 13 12 12 12 12 12 11 10 10 10 10 11 11 12 12 13 13 13 13 13 14 14 15 15 16 16 15 16 16 17 17 16 15 13 13 13 13 13 14 14 13 11 8 6 7 8 8 8 7 7 7 7 8 9 10 10 9 9 8 7 7 8 7 6 6 4
16 16 16 17 16 15 14 14 15 15 16 16 17 16 15 14 13 12 11 11 11 11 10 10 10 10 9 9 9 9 10 10 11 11 12 12 13 13 13 14 14 15 15 16 16 16 16 16 16 15 13 12 12 13 13 13 13 13 12 11 9 7 7 8 8 8 8 8 8 8 9 9 10 10 10 9 9 8 8 8 8 7 6 5 5
16 16 16 16 15 14 14 14 15 15 15 15 15 15 14 12 11 10 10 9 10 10 10 10 9 9 9 8 8 8 8 9 9 10 11 11 12 13 13 14 14 15 15 16 16 15 14 14 13 12 12 11 12 12 12 12 12 11 10 8 8 8 8 8 8 8 8 8 8 8 9 9 9 10 10 9 9 8 8 8 7 6 6 5 5
Wind_Direction
191 193 196 197 193 188 188 190 191 196 202 208 217 220 219 223 227 226 223 222 221 221 223 223 222 222 224 227 229 231 232 235 239 241 239 241 246 255 262 261 257 255 255 261 274 273 264 272 288 285 282 292 303 313 316 294 265 260 263 261 258 257 243 228 226 234 234 235 232 223 218 217 214 211 209 207 205 204 201 200 201 197 194 195 196
189 192 195 196 195 193 193 192 191 193 198 202 211 218 219 222 226 224 221 221 221 222 224 224 224 222 223 227 228 230 231 233 237 240 239 240 244 252 260 263 261 257 257 267 277 270 264 277 288 270 271 290 303 310 308 295 265 255 256 255 255 255 242 227 227 229 222 216 213 212 211 210 209 210 210 208 204 201 199 198 199 199 197 198 201
191 194 195 195 194 196 198 198 197 200 202 202 204 211 216 222 224 222 221 222 222 223 224 225 224 222 222 225 228 229 230 232 237 239 238 239 242 248 258 265 266 263 264 272 272 265 267 280 269 253 276 296 298 296 291 281 269 258 260 260 256 254 243 230 229 227 213 203 208 210 207 206 208 210 210 208 205 202 200 198 197 198 198 200 205
191 194 196 195 192 194 199 201 202 205 206 206 204 204 207 216 222 222 221 223 223 223 223 224 224 221 220 224 228 229 230 232 235 236 235 236 238 247 258 263 267 269 269 270 266 261 264 269 264 264 276 286 289 288 285 274 261 251 254 259 258 256 248 235 231 229 219 207 210 215 211 207 208 208 204 203 204 204 202 199 198 199 199 201 207
189 193 196 196 194 196 201 204 205 205 205 205 203 200 201 210 220 222 221 223 223 221 221 223 223 220 219 225 229 230 231 232 232 231 230 230 236 246 255 262 267 267 266 267 265 260 262 270 276 278 273 271 265 273 287 274 251 249 251 251 251 250 246 238 228 225 225 218 212 211 210 205 202 204 203 199 199 200 200 201 201 201 203 206 209
189 192 195 198 199 201 204 206 207 206 202 199 197 197 200 209 217 220 222 223 221 219 220 222 222 219 221 228 232 233 233 233 232 231 228 229 234 242 253 262 263 262 265 270 267 258 263 280 281 273 262 248 230 261 289 265 232 246 253 244 240 237 236 234 224 219 222 221 213 206 203 201 197 198 203 203 199 196 195 198 203 206 209 211 213
190 192 195 199 201 204 207 210 212 210 203 196 196 197 202 209 215 217 220 221 218 216 220 222 221 219 222 228 229 230 230 229 228 228 227 227 225 228 240 246 251 263 268 260 249 248 264 274 269 255 234 222 246 288 285 260 243 258 260 247 239 233 225 217 210 210 214 211 208 204 197 197 199 197 199 201 201 199 195 194 199 207 212 216 218
190 193 195 198 202 205 209 212 214 211 203 197 197 198 202 209 213 214 215 217 217 218 221 222 218 214 217 222 223 224 222 219 221 224 226 228 227 228 232 231 238 263 263 246 235 243 258 263 253 234 215 220 295 289 268 258 260 258 251 241 235 232 227 218 212 213 212 206 204 201 187 184 193 194 188 189 192 198 200 197 197 203 210 216 220
191 194 195 199 204 207 209 210 209 205 200 196 196 197 201 207 208 208 211 214 216 218 221 220 214 211 215 219 221 222 221 219 222 224 227 232 235 234 232 228 225 234 240 238 237 239 246 248 234 224 217 215 274 273 252 253 263 250 236 225 217 223 228 226 223 217 209 203 198 192 180 176 182 181 179 185 191 195 198 198 200 204 208 214 221
193 195 197 201 205 207 206 205 201 197 196 195 194 194 198 202 203 205 209 212 214 216 218 216 213 213 217 219 222 224 225 227 227 227 229 230 228 226 229 229 209 202 221 232 234 232 233 221 204 221 252 227 235 249 232 219 230 236 234 218 208 223 225 222 222 215 208 203 195 187 181 181 188 190 188 192 195 194 195 195 196 200 202 210 221
195 197 200 204 203 201 200 200 198 196 195 193 191 189 193 197 199 202 204 207 211 213 215 213 211 214 219 223 228 230 230 231 230 230 229 222 217 213 212 210 195 197 215 227 231 229 220 205 196 216 267 244 229 227 212 199 208 219 216 209 217 234 235 232 230 222 214 208 200 195 192 192 197 199 199 197 195 196 198 196 194 194 194 198 209
197 200 204 203 197 193 194 196 197 197 193 189 185 185 188 192 195 197 200 204 208 211 213 211 209 214 223 229 236 237 236 235 233 232 225 219 219 209 191 187 194 204 213 224 232 226 214 205 202 207 244 240 223 215 203 193 203 209 203 205 217 224 231 235 235 233 228 218 206 204 206 207 205 203 205 205 199 197 200 200 199 199 198 200 205
199 203 203 199 192 189 192 194 196 194 189 183 180 180 183 187 192 196 200 204 208 210 211 210 207 216 225 231 237 237 236 236 235 231 223 218 215 202 188 191 203 209 216 226 229 222 214 212 208 205 219 219 208 207 203 196 198 205 210 220 222 220 222 220 219 235 242 232 223 220 220 220 217 215 216 214 204 198 198 200 205 206 207 209 212
199 201 199 194 190 189 191 192 190 187 183 178 176 177 182 188 192 197 201 204 206 208 209 207 206 217 228 233 235 233 231 233 234 230 223 214 204 200 202 209 213 216 223 227 225 223 222 224 221 212 207 204 200 201 201 197 197 204 213 216 207 204 204 191 182 193 211 223 232 235 232 231 233 234 230 224 217 211 208 209 211 211 211 212 213
198 197 192 189 189 189 190 187 182 179 176 174 175 179 184 188 192 198 203 206 206 206 206 205 206 219 230 233 233 232 231 230 228 225 220 210 202 205 213 219 218 219 220 219 221 224 222 222 220 209 201 200 201 201 201 201 201 205 205 197 184 181 177 169 158 141 145 171 193 206 213 221 230 235 232 229 228 227 227 227 221 212 206 200 191
194 191 187 187 188 188 186 181 176 174 174 173 176 180 184 188 193 199 203 205 205 204 203 205 212 220 229 232 231 231 232 229 223 219 216 210 204 207 216 220 219 217 216 217 217 216 215 215 210 203 202 202 200 201 202 202 203 203 194 176 165 164 154 144 137 129 132 134 130 142 153 175 203 210 213 220 224 225 225 222 213 203 188 161 139
190 187 186 186 186 186 184 178 174 174 175 176 177 180 183 189 194 198 201 201 201 199 197 205 216 221 227 229 229 231 233 230 223 216 209 205 204 207 211 213 214 215 217 217 212 207 206 206 201 201 204 201 200 202 202 202 202 198 185 166 156 152 141 136 137 132 130 126 118 115 112 110 129 150 170 196 215 222 214 197 191 187 167 138 121
188 187 187 185 184 183 180 175 174 176 178 177 178 180 184 190 194 197 200 201 198 195 194 201 211 220 227 229 229 231 233 230 222 213 205 200 202 205 205 205 208 213 212 207 202 199 199 197 196 206 212 207 203 202 199 201 203 195 183 166 155 149 141 140 140 133 128 124 116 112 104 95 94 102 120 142 170 206 213 200 189 179 160 145 138
189 188 186 183 183 180 174 171 173 176 176 175 178 181 184 190 194 197 201 204 200 195 193 196 205 216 225 229 230 230 233 232 222 209 199 195 199 202 202 203 207 208 204 200 195 192 194 196 196 207 216 210 203 199 197 201 204 195 185 171 158 151 148 146 143 136 131 124 116 114 108 98 94 99 109 123 144 173 210 216 194 178 162 152 147
189 186 182 178 178 175 169 169 173 175 174 175 179 182 186 190 192 193 198 202 199 195 196 199 207 215 220 224 225 224 228 229 215 201 193 191 196 200 201 204 209 208 202 198 194 188 189 195 196 203 212 207 200 197 197 201 203 197 188 177 163 158 156 153 150 146 141 129 118 116 115 113 116 124 130 137 144 146 148 185 186 182 171 161 156
182 178 175 173 173 170 169 171 172 172 174 175 178 183 188 190 188 189 193 192 189 194 197 203 211 212 213 217 218 216 222 219 203 192 188 190 196 200 202 209 217 213 202 194 192 189 189 193 193 197 203 202 200 200 197 198 204 201 190 178 164 159 158 156 154 149 138 127 118 113 117 125 132 140 146 147 136 116 115 153 170 179 182 173 166
170 168 167 167 166 167 170 171 169 168 171 175 178 182 186 186 186 190 190 183 182 189 195 203 208 204 202 212 214 211 214 209 195 188 187 189 195 201 208 219 225 218 201 191 188 188 190 192 190 191 197 201 202 202 196 193 198 197 187 176 163 158 157 153 147 139 129 123 119 116 118 122 126 130 132 129 123 117 119 134 146 151 157 164 166
162 160 160 159 160 163 166 168 168 170 174 180 183 182 179 178 180 189 190 180 176 182 190 197 200 188 185 203 211 208 208 201 191 189 189 190 196 206 217 225 229 220 205 194 188 186 187 188 185 187 194 200 203 202 194 189 192 191 184 177 166 158 155 149 143 135 128 126 124 121 120 121 120 118 117 114 113 115 116 117 123 133 135 136 139
154 154 154 156 158 160 162 165 168 172 176 179 181 178 174 171 174 188 195 181 171 174 181 189 190 172 161 180 199 206 209 201 190 191 195 197 203 213 222 226 227 221 211 201 193 188 186 185 185 187 193 197 200 199 191 186 187 186 182 177 169 163 157 150 142 136 132 133 130 122 118 119 118 114 112 113 113 115 116 115 117 123 126 125 124
150 150 152 156 160 162 164 165 167 170 172 175 178 178 173 166 170 187 195 181 170 170 175 183 181 159 144 160 185 198 205 202 195 195 200 204 209 216 222 225 223 217 210 204 199 194 191 192 193 193 194 196 195 192 188 185 184 184 184 179 172 167 161 151 144 142 142 142 137 126 120 119 118 116 115 117 118 118 118 118 119 122 125 126 122
147 148 151 157 162 166 165 162 163 166 171 176 182 182 174 168 172 186 192 184 174 172 174 175 166 147 147 165 180 186 191 194 196 199 200 203 209 214 216 217 215 211 209 207 205 202 200 201 202 201 199 197 193 190 187 184 182 182 184 185 177 170 163 157 153 152 151 148 140 130 125 123 122 121 123 124 123 122 123 123 124 124 124 123 119
146 149 153 158 162 166 163 159 159 163 168 175 181 183 181 177 176 182 187 185 176 167 165 162 150 147 161 177 181 179 180 184 190 196 198 200 204 206 207 209 207 205 207 208 207 207 206 205 206 205 200 194 191 190 189 187 185 182 183 187 182 171 165 165 163 157 153 150 142 134 130 129 128 128 131 131 129 128 130 129 125 124 124 124 123
150 152 156 157 160 161 159 157 156 156 159 166 171 175 178 176 174 178 185 189 182 167 160 160 158 161 172 181 180 175 179 185 190 192 194 196 198 199 202 205 205 203 205 205 204 204 203 200 198 196 192 187 184 185 186 187 185 182 185 187 180 172 170 170 165 158 156 154 148 140 136 136 137 137 139 138 134 133 133 126 120 127 136 140 138
152 153 155 154 154 155 154 153 153 150 151 156 158 161 167 169 170 175 182 190 192 179 166 170 174 173 173 177 178 180 186 191 192 192 194 197 199 199 199 202 204 203 203 203 199 193 190 188 186 182 180 178 176 177 181 183 182 184 188 186 179 176 175 172 167 163 164 162 155 147 144 144 143 144 145 141 137 137 136 126 125 142 155 159 154
151 152 153 152 152 152 148 147 149 149 150 151 148 145 149 159 170 175 177 184 193 188 176 177 181 178 175 175 178 186 196 197 192 191 195 197 200 200 199 201 204 202 199 198 196 189 183 180 179 178 177 176 176 178 182 183 182 184 183 181 181 181 177 174 171 169 168 167 160 153 151 150 148 149 148 142 140 144 148 150 160 171 180 183 170
148 149 151 151 152 151 146 145 146 146 146 147 144 135 128 127 139 155 162 169 179 180 176 175 176 178 182 183 182 189 202 202 193 191 194 194 196 199 199 201 204 202 197 194 191 186 181 178 177 180 180 178 179 182 184 184 183 182 178 177 182 183 178 177 176 172 171 169 164 159 158 156 155 154 150 143 144 156 165 177 189 195 197 195 182
147 145 146 146 147 147 144 143 142 139 138 138 135 130 123 114 108 113 130 147 155 155 152 147 145 157 175 192 197 195 193 189 187 189 191 191 193 195 197 201 203 200 197 194 190 185 183 183 182 180 176 176 179 182 182 183 182 180 176 175 179 183 183 182 180 179 178 174 167 166 167 164 159 156 151 147 156 172 181 192 201 202 197 191 183
143 141 141 140 140 140 140 139 137 136 135 132 129 129 127 120 112 108 112 123 131 132 129 127 132 146 154 159 184 188 180 173 176 183 186 188 189 189 187 191 194 194 194 195 191 185 184 186 184 178 174 176 179 179 179 180 179 177 176 177 180 184 187 186 185 185 185 179 174 174 173 168 161 156 152 155 169 178 186 196 201 200 195 187 178
138 139 140 139 138 137 138 137 135 135 135 135 136 137 135 131 127 122 116 114 114 114 118 122 128 136 134 125 137 158 163 165 170 176 180 184 186 184 179 177 180 185 191 198 195 187 183 183 181 177 176 176 175 175 175 175 174 174 176 180 183 185 189 194 195 192 187 185 183 179 173 169 164 158 153 155 163 170 181 195 198 196 193 186 176
128 131 135 136 135 134 135 135 135 136 138 142 145 146 141 137 133 128 122 116 108 104 106 113 119 123 123 121 125 133 140 147 154 159 166 172 175 176 173 170 171 177 185 194 195 188 184 182 180 178 177 175 174 175 175 173 173 176 178 180 183 186 191 198 199 193 189 186 181 175 169 165 160 155 152 152 158 166 178 191 196 198 196 188 177
122 125 128 130 129 129 130 133 137 139 142 143 142 139 137 133 127 120 116 112 108 105 105 110 117 121 122 119 118 120 124 128 131 134 142 151 159 166 169 167 169 172 175 180 184 183 182 182 180 178 177 176 175 176 175 173 174 178 179 180 185 189 192 194 192 187 183 179 173 168 163 158 156 159 160 159 164 175 182 191 202 205 198 187 178
122 124 126 127 127 127 127 129 132 134 135 134 133 131 127 123 118 113 108 106 105 106 108 113 118 120 118 117 117 119 120 121 121 124 132 141 148 156 164 166 168 168 167 170 176 177 175 176 178 177 176 177 177 176 175 175 176 177 177 181 187 190 188 185 182 177 172 168 165 161 158 156 159 164 163 154 164 181 190 201 210 204 190 183 178
121 122 124 125 125 123 123 124 126 128 128 128 128 125 118 112 110 107 105 105 107 108 110 115 119 119 118 120 124 126 126 126 127 130 136 141 140 138 144 157 163 164 163 164 168 169 167 169 174 176 176 177 178 178 177 177 178 177 177 178 180 180 175 169 168 167 165 163 160 158 158 159 160 157 151 155 178 195 201 206 205 194 183 181 182
113 115 118 120 120 120 122 123 123 124 124 123 121 117 111 107 106 106 106 107 107 108 110 112 115 119 124 129 133 136 136 136 137 137 138 138 133 130 140 152 156 156 157 158 158 159 160 163 170 176 177 177 179 180 180 179 178 177 175 171 167 164 162 161 162 163 162 159 157 158 160 158 152 152 159 176 198 207 203 200 198 193 187 184 184
105 108 111 114 115 117 118 119 119 120 119 116 113 110 107 107 108 109 110 110 109 111 113 113 115 123 131 136 141 144 143 140 139 139 137 133 129 130 139 148 152 154 157 157 156 157 160 162 168 174 177 178 179 180 180 179 176 172 168 161 156 156 158 160 161 160 159 159 160 160 159 154 154 165 181 193 202 203 198 192 189 189 189 187 184
99 102 105 108 110 111 111 110 111 111 110 109 108 106 107 109 111 113 114 114 114 114 114 114 117 123 130 136 144 148 144 139 136 133 129 128 129 131 136 145 152 156 159 160 158 159 159 159 163 169 172 175 177 176 175 174 171 165 160 155 154 156 158 160 160 161 161 163 163 160 158 162 172 186 193 192 188 186 185 183 181 181 184 186 185
95 97 100 102 105 106 104 101 101 102 102 102 104 106 109 112 115 116 117 117 118 117 115 114 116 118 118 124 134 138 134 132 129 126 124 126 127 127 130 138 145 149 154 157 157 157 157 156 158 163 166 169 170 170 170 169 167 162 158 156 158 160 160 160 162 164 164 163 161 161 166 178 189 192 189 185 181 178 176 177 178 178 179 182 182
93 94 96 98 99 99 98 97 98 98 98 99 102 107 111 113 114 117 119 118 119 119 116 114 116 115 112 113 121 125 125 126 127 128 129 130 129 128 129 134 138 141 145 149 152 156 156 153 153 157 160 161 164 165 166 166 164 161 158 158 159 161 161 163 165 166 164 162 164 170 180 186 187 186 184 181 178 175 173 173 174 176 179 182 184
90 91 91 91 91 91 92 95 96 96 98 102 104 107 110 112 114 117 120 119 119 118 115 114 115 114 113 115 119 121 123 125 127 128 128 128 128 128 128 129 133 135 138 141 146 151 153 153 154 155 156 157 159 160 160 161 161 160 159 160 162 163 164 165 164 163 163 167 173 180 185 184 183 185 184 179 176 174 172 171 174 177 180 184 187
82 84 84 84 84 85 88 92 96 99 102 105 105 106 108 111 114 118 120 119 118 116 113 113 114 112 112 116 118 118 120 121 122 122 122 123 123 123 123 124 127 129 132 135 139 143 147 151 153 152 150 151 153 154 153 155 156 157 159 161 162 161 159 159 159 161 167 177 184 184 183 183 184 184 180 176 175 174 171 172 177 180 181 183 184
78 81 82 83 85 87 90 94 99 103 104 105 106 108 109 110 114 118 118 117 115 114 112 113 112 109 108 109 110 111 113 116 118 119 119 119 119 119 119 121 123 125 128 130 133 137 141 145 145 142 141 143 145 146 148 150 152 153 155 154 152 152 152 154 157 163 171 179 183 183 183 182 181 179 176 172 171 172 173 174 177 178 179 179 179
80 83 86 88 91 93 95 99 102 103 104 106 109 111 112 113 115 116 115 115 116 115 114 112 108 105 104 104 105 107 110 114 116 117 117 117 116 117 119 120 122 124 126 127 130 133 136 138 139 138 137 138 140 142 145 147 148 150 150 147 147 149 152 154 158 162 165 168 174 182 187 183 176 174 174 173 171 174 177 174 173 175 175 174 170
75 80 83 87 91 94 97 101 103 105 106 109 111 112 114 116 116 116 117 119 119 119 117 114 109 105 105 105 106 108 112 114 114 114 115 116 116 117 120 122 125 128 129 129 130 133 135 137 139 139 137 138 139 140 142 145 147 148 148 148 148 151 155 159 160 160 161 163 167 175 184 184 178 175 177 178 179 183 182 177 177 178 173 169 168
67 73 78 81 85 91 97 101 105 109 112 113 115 117 118 120 121 122 124 123 121 118 117 114 111 109 108 109 111 111 110 111 113 114 116 118 119 120 123 126 129 132 133 132 132 135 137 140 142 141 139 138 138 139 141 145 147 148 150 152 155 159 164 165 164 162 163 167 168 169 175 180 180 179 180 182 184 186 185 182 182 180 175 178 184
70 74 79 81 83 90 98 102 107 113 116 118 119 120 121 122 122 122 121 120 117 114 113 111 111 111 111 112 114 112 110 111 115 118 121 123 125 126 129 132 134 136 137 135 135 137 139 143 145 145 143 141 141 142 144 147 150 154 159 165 170 173 170 167 167 168 170 172 170 169 172 177 179 179 182 183 184 186 185 183 183 185 187 193 201
71 76 81 83 86 92 98 103 108 113 116 117 117 117 116 115 114 113 112 113 112 110 109 108 108 109 112 114 115 114 115 118 121 124 127 129 131 133 136 137 137 139 140 139 138 139 142 146 149 149 148 149 149 148 150 154 158 165 173 179 179 174 169 168 170 171 171 171 171 170 172 177 179 179 180 181 181 183 184 184 187 194 200 206 215
Height
719 721 724 727 728 729 732 736 739 742 744 746 751 756 761 766 769 772 775 777 779 780 781 781 782 782 783 784 785 787 790 792 794 795 797 798 799 801 803 805 807 808 808 808 808 809 809 810 812 812 812 811 810 811 811 812 812 812 812 813 813 813 813 813 813 812 812 812 812 812 814 815 817 819 821 823 826 829 832 835 837 839 840 841 842
716 718 720 722 723 726 729 733 736 738 740 743 747 754 760 765 768 771 774 776 777 778 779 780 780 780 780 782 783 785 787 789 791 793 794 796 797 800 802 804 806 806 807 807 807 808 809 810 810 811 811 810 809 810 810 811 811 811 811 811 811 811 812 812 812 811 811 811 812 812 813 814 815 817 818 821 824 827 829 832 834 837 839 841 842
713 715 717 718 720 723 727 731 734 734 736 739 743 749 756 763 767 769 772 774 775 776 777 778 778 778 778 779 780 782 784 787 789 790 792 793 795 798 801 803 805 805 805 806 806 807 808 809 809 810 809 809 809 810 810 810 810 810 810 810 810 810 810 811 811 810 811 811 811 811 811 813 814 815 817 820 823 825 826 829 833 835 838 840 842
711 712 714 716 719 723 726 728 730 730 733 737 740 744 750 758 765 768 770 771 772 773 775 776 777 776 776 777 778 780 782 784 786 788 789 791 793 796 799 802 803 804 805 805 805 806 807 808 808 808 808 809 809 810 810 810 809 809 808 808 808 808 809 809 809 810 810 809 810 810 810 811 812 814 816 819 821 823 826 829 832 835 836 838 840
709 710 712 714 718 721 723 725 726 728 731 735 738 742 747 754 761 765 768 769 769 771 773 775 775 774 773 774 776 778 781 783 784 785 786 788 791 794 797 800 802 803 803 804 805 806 807 807 807 807 807 808 808 809 809 809 808 808 807 807 807 807 807 807 808 808 809 809 809 810 810 811 812 813 815 817 820 822 825 829 832 834 835 837 839
707 709 711 713 716 718 720 722 724 727 729 731 736 740 745 750 756 761 765 765 767 769 771 773 773 772 772 773 776 779 781 783 784 784 784 785 788 791 794 797 799 801 802 803 804 805 805 806 806 806 807 807 807 808 808 808 808 807 806 806 806 806 806 806 807 807 808 808 808 809 810 811 812 813 814 816 818 820 824 828 831 833 834 836 837
705 707 709 711 713 715 716 718 722 725 726 728 733 738 743 747 751 757 761 763 765 768 770 771 771 771 771 773 776 778 780 782 783 783 784 784 785 788 790 793 796 799 802 803 804 804 804 805 805 805 806 806 807 807 807 808 807 807 806 806 806 806 806 806 806 806 807 807 808 808 809 810 812 813 814 816 818 820 823 826 829 831 832 834 836
702 705 707 709 710 712 714 716 720 724 725 727 731 736 740 744 749 754 758 760 764 767 767 769 770 769 768 770 772 773 775 777 778 780 781 782 783 784 784 785 788 795 802 803 803 803 803 804 805 805 806 806 806 807 807 807 807 806 806 805 805 805 806 806 806 806 806 806 807 807 808 810 811 813 814 816 818 820 821 823 826 828 830 832 834
700 702 704 706 707 709 712 717 721 725 727 729 732 734 737 743 747 752 755 758 762 764 765 767 767 765 765 766 768 769 770 772 773 775 777 779 781 783 784 783 782 788 797 801 802 802 803 803 804 805 805 806 806 807 807 807 807 807 806 806 805 805 805 806 806 805 806 806 806 807 808 809 810 812 813 814 815 817 820 822 825 826 828 830 832
698 700 701 703 705 708 713 718 723 725 728 730 731 733 737 742 746 750 754 756 759 761 762 764 764 762 763 764 765 766 768 769 771 772 773 776 779 781 784 784 782 785 793 799 800 801 802 803 804 804 805 805 806 806 807 807 807 807 807 806 806 805 805 805 805 805 805 805 805 806 807 808 809 810 811 812 814 816 818 821 823 825 827 829 831
695 697 699 700 704 709 713 718 722 724 727 729 730 732 736 741 745 748 751 754 756 758 760 761 761 760 761 763 763 764 766 767 768 769 771 773 776 777 780 783 784 786 791 796 798 799 801 802 803 803 804 805 805 805 806 807 807 807 807 807 806 806 806 806 805 805 805 805 805 806 806 807 808 809 810 812 814 816 817 819 821 823 825 827 828
693 695 697 700 705 710 714 718 721 723 725 727 728 731 735 740 744 746 749 752 754 756 758 759 758 758 759 761 762 764 765 766 767 768 769 772 774 776 777 780 783 786 789 793 795 797 799 800 801 802 803 804 805 805 806 807 808 808 808 807 807 807 807 806 806 806 805 805 805 806 806 807 808 809 810 811 813 815 817 818 820 821 822 823 824
691 693 697 702 705 709 713 717 720 722 724 725 726 729 734 738 741 744 746 750 752 754 756 756 755 755 757 758 760 762 764 765 766 766 768 770 772 775 776 778 782 785 787 790 793 795 797 799 800 801 802 803 805 805 806 807 808 809 808 808 808 807 807 807 806 806 806 805 806 806 806 807 807 808 809 810 812 814 816 817 818 819 820 821 822
689 693 698 702 706 709 712 715 718 721 722 723 724 727 732 736 739 742 745 748 750 752 754 753 751 753 755 756 758 760 762 763 764 765 767 768 770 773 775 778 781 784 786 788 791 793 796 797 798 800 801 802 804 805 806 807 808 809 809 809 808 808 808 807 807 806 806 806 806 806 806 807 807 808 809 810 811 812 813 815 816 817 819 820 822
689 693 698 702 706 709 712 715 717 719 720 720 722 726 730 734 737 740 743 745 747 749 750 748 748 750 753 755 757 759 760 762 763 764 766 767 769 771 774 777 781 784 785 787 789 792 794 796 797 799 800 802 804 805 806 807 808 809 809 809 809 808 808 808 807 807 807 806 806 806 806 807 807 808 808 809 810 811 812 813 814 816 818 820 822
688 693 697 701 705 708 711 714 715 716 716 718 720 724 728 732 735 738 741 743 745 747 746 744 745 748 751 754 757 758 759 761 762 763 765 767 769 771 774 777 781 783 784 786 788 791 793 795 796 798 800 801 803 805 805 806 807 808 809 809 809 808 808 808 807 807 807 807 806 806 806 806 807 807 808 808 809 810 811 812 814 816 818 820 823
688 692 697 701 704 707 710 711 711 712 713 715 718 723 726 730 734 736 738 740 742 742 741 740 743 746 750 753 755 757 758 759 761 762 764 767 769 771 774 778 781 782 784 786 788 790 792 793 795 797 799 801 803 804 805 806 807 808 808 808 808 808 808 808 808 808 807 807 807 807 807 807 807 807 807 808 809 810 811 812 813 815 817 820 823
688 692 696 699 703 706 707 707 707 708 710 713 717 721 725 729 732 734 735 737 737 737 736 738 741 745 749 752 753 755 756 757 759 761 763 766 768 771 775 778 780 781 783 786 788 790 791 792 794 796 798 800 802 803 804 805 806 807 808 808 808 808 808 808 808 808 808 808 808 808 808 808 807 807 807 808 809 810 811 812 812 814 816 819 822
686 690 694 697 701 703 703 703 704 706 709 713 717 721 725 728 730 732 733 733 732 732 734 737 740 744 747 750 751 753 754 755 756 759 762 765 768 771 775 777 779 781 783 785 787 789 790 791 793 795 798 800 802 803 804 805 806 807 807 807 807 808 808 809 809 809 809 809 809 809 809 809 808 808 808 809 809 811 812 812 813 814 816 818 821
685 689 693 697 699 700 699 700 702 705 709 714 718 721 724 727 729 730 730 729 729 730 734 737 739 742 745 747 749 750 751 752 755 758 761 764 768 771 774 776 778 780 782 784 786 787 789 790 792 795 797 800 801 803 804 805 806 807 807 807 808 808 808 809 809 809 809 809 810 810 810 810 810 809 809 810 810 811 812 813 815 816 817 819 821
685 689 692 694 696 696 696 698 701 705 710 713 717 720 723 725 726 726 726 726 728 731 735 737 738 740 743 745 747 748 749 751 754 758 761 765 768 771 773 775 777 779 781 783 785 786 788 789 792 794 797 799 801 802 803 804 805 807 807 808 808 808 809 809 809 809 810 810 810 811 811 810 810 810 811 811 812 812 813 814 816 818 818 819 821
684 687 689 691 692 693 695 697 701 705 709 712 716 718 721 722 722 722 723 726 730 733 735 737 738 739 741 743 745 746 749 752 755 759 762 765 768 771 773 775 776 778 780 782 783 785 787 789 791 794 796 798 800 801 802 804 805 806 808 808 809 809 809 809 809 810 810 810 811 811 811 811 811 811 812 812 813 814 815 816 818 819 820 821 822
683 685 687 688 690 692 694 697 701 704 708 710 713 714 716 717 719 721 723 727 731 734 735 736 737 739 741 742 744 747 750 753 757 760 763 765 768 771 773 775 776 777 779 781 783 785 787 789 791 793 795 797 799 800 801 803 804 806 807 808 808 809 809 809 809 810 810 811 811 812 812 813 812 812 813 813 814 815 816 818 819 820 821 823 824
681 683 685 687 689 692 694 697 700 703 706 707 708 710 712 715 718 720 723 727 732 734 736 737 737 738 741 743 745 748 751 754 758 760 762 765 768 771 774 775 777 778 779 781 783 785 787 789 791 793 794 796 798 799 801 802 803 805 806 807 808 808 808 809 809 810 811 811 812 813 813 814 814 814 814 815 816 817 818 819 821 822 823 824 825
679 682 684 686 689 691 694 696 699 701 702 704 705 707 710 714 717 720 722 727 731 734 735 736 737 739 743 746 748 750 752 755 758 760 763 767 770 773 774 776 777 779 780 782 783 785 787 789 790 792 794 795 797 798 800 801 803 804 805 806 807 807 808 808 809 810 811 812 813 813 814 815 815 815 816 817 818 819 820 821 823 824 825 826 827
678 681 683 686 688 690 692 694 697 698 700 702 703 705 709 713 717 719 722 726 730 733 734 736 738 742 745 748 750 752 753 756 759 762 765 769 771 773 774 776 777 779 780 781 783 785 786 788 790 791 793 794 796 797 799 801 802 803 804 805 805 806 807 808 809 809 810 812 813 814 815 816 816 817 818 819 820 821 822 823 824 826 827 828 829
677 680 683 685 687 688 690 692 694 697 699 701 703 706 710 714 717 719 721 725 729 732 735 737 740 743 746 748 751 753 754 756 760 764 767 769 771 772 774 775 776 778 779 781 782 784 786 787 789 790 792 794 795 797 798 800 801 802 803 804 805 806 807 808 809 810 811 812 814 814 816 817 818 819 820 821 821 822 823 824 826 827 829 830 831
677 680 682 684 686 687 689 691 693 696 699 702 704 708 712 715 717 719 721 724 728 732 736 738 738 739 742 745 749 752 754 756 760 763 765 767 769 771 772 774 775 777 778 780 781 783 785 786 788 789 791 792 794 796 797 799 801 802 803 804 805 806 807 809 810 812 813 814 814 815 816 817 819 820 821 822 823 824 826 827 828 829 830 831 832
677 679 682 683 685 687 689 691 693 696 699 703 706 710 713 715 718 720 722 724 727 731 735 736 736 737 740 743 747 750 752 754 757 761 763 765 767 769 771 772 774 776 777 779 780 782 784 785 786 787 789 791 792 794 796 798 799 800 802 803 805 806 807 809 811 812 813 814 814 815 816 818 819 820 821 823 824 826 827 828 829 830 831 832 832
676 678 680 682 685 687 689 692 694 697 700 703 706 710 713 716 718 720 722 725 728 730 733 735 736 738 740 742 745 747 750 752 756 760 762 764 766 768 770 771 773 774 776 778 779 781 782 783 785 786 787 789 790 792 794 795 797 798 800 802 804 806 808 810 811 812 813 815 815 816 817 818 819 821 822 823 825 827 828 829 830 831 831 832 833
676 678 680 682 685 688 690 693 695 698 701 704 706 709 712 715 718 721 723 725 728 730 732 733 735 737 739 740 743 746 749 752 756 758 761 763 765 767 769 770 772 773 775 776 778 779 781 782 783 784 785 787 788 790 792 793 795 797 799 801 804 806 808 810 811 812 813 814 816 817 818 819 820 821 822 824 825 827 828 829 830 831 832 833 834
677 680 682 684 687 690 692 694 696 699 702 704 707 709 712 715 719 722 725 726 728 730 730 731 734 737 738 740 743 746 748 752 754 757 759 762 764 765 767 769 771 772 774 775 777 778 779 780 781 782 783 785 787 789 790 792 794 796 798 800 803 805 807 809 811 812 813 814 815 817 818 819 821 822 823 824 825 827 828 829 830 831 832 833 834
678 681 684 686 689 691 694 696 698 700 702 704 707 711 714 715 718 722 725 727 729 730 729 730 734 737 739 741 744 746 749 751 754 756 758 760 763 765 766 768 770 772 773 774 776 777 778 779 779 781 783 785 786 788 790 792 794 796 798 800 802 804 806 808 810 811 813 814 815 816 818 819 821 822 823 824 826 827 828 829 830 832 833 834 835
680 682 685 687 689 692 694 696 698 700 702 705 708 713 715 717 718 720 723 726 728 729 729 731 734 738 740 742 745 748 750 752 754 755 758 760 762 764 766 768 769 771 773 774 775 776 777 778 779 781 783 784 786 788 790 792 794 796 798 800 802 804 805 807 809 810 812 813 815 816 817 819 821 822 823 825 826 828 829 830 831 832 833 834 835
681 684 686 688 690 691 693 695 698 701 704 707 711 713 715 718 719 720 720 722 725 727 729 731 735 739 741 744 747 749 751 752 754 756 758 760 762 764 766 768 769 771 772 773 774 775 776 777 779 781 782 784 785 787 789 792 794 796 798 800 801 803 804 806 808 809 810 812 814 815 817 819 821 822 824 825 827 828 829 830 831 832 833 834 835
684 686 689 691 691 692 694 697 699 703 706 710 712 714 716 719 720 719 719 720 722 725 729 733 737 741 744 747 748 750 752 753 754 756 759 761 762 764 765 767 768 770 771 773 774 775 776 777 779 780 782 783 785 787 790 792 794 796 798 800 801 802 803 805 806 807 809 811 813 815 817 819 821 822 824 825 827 828 829 830 831 832 833 834 834
687 689 691 692 693 694 696 699 702 705 709 712 714 717 719 719 718 717 718 720 723 727 732 736 740 743 746 748 750 751 753 754 755 758 760 762 763 764 765 766 768 769 771 773 774 775 776 777 779 780 781 783 785 787 790 792 794 796 798 799 801 802 802 804 805 807 809 812 814 816 817 819 821 823 824 825 827 828 829 830 830 831 832 833 834
689 691 692 693 693 695 699 703 706 709 712 714 717 717 717 716 715 716 719 723 727 731 735 739 741 743 746 749 751 753 754 756 757 759 761 763 764 764 765 767 768 770 771 773 774 775 776 777 779 780 781 783 785 787 790 792 794 795 797 798 800 801 802 804 806 808 810 812 814 816 818 820 821 823 824 825 827 828 828 829 830 830 831 832 833
692 694 695 696 697 699 702 706 709 712 714 716 717 715 713 713 716 719 723 727 730 734 738 741 743 746 748 750 752 754 755 757 759 760 762 763 764 764 765 767 769 770 772 773 774 775 776 777 779 781 782 784 786 788 790 792 793 795 796 797 799 801 802 804 806 809 811 813 815 817 818 820 821 822 824 825 826 827 828 828 829 830 830 831 832
696 697 699 700 702 705 707 710 712 714 715 716 716 714 714 716 719 723 726 730 734 738 741 744 747 749 751 752 754 755 757 758 760 761 762 763 764 765 766 768 769 770 772 773 774 775 776 777 779 781 783 785 786 788 790 791 793 794 796 797 799 801 803 805 807 809 811 813 815 817 818 819 821 822 824 825 826 826 827 828 829 830 831 831 832
700 701 703 705 706 709 711 713 714 714 714 714 714 715 717 721 724 727 730 734 738 741 744 747 749 752 753 755 756 757 758 759 760 761 762 764 765 766 767 768 769 770 771 772 774 775 776 778 780 781 783 785 786 788 790 791 793 794 796 798 800 802 804 806 808 810 812 813 815 816 818 819 821 822 823 824 825 826 827 828 829 831 832 833 833
706 707 708 709 711 711 712 713 714 713 713 715 717 719 722 725 728 731 734 738 741 743 746 748 751 753 755 757 758 758 759 759 761 762 763 764 765 766 767 768 769 770 771 773 774 775 777 778 780 782 784 785 787 789 790 791 793 795 797 798 801 803 805 807 808 810 812 813 815 816 818 819 821 822 823 824 825 826 828 829 830 831 832 833 834
710 711 713 713 713 712 712 712 713 714 716 719 721 724 726 729 731 734 737 740 743 745 747 749 752 754 756 757 758 759 759 760 761 762 763 764 765 766 767 768 769 770 772 773 774 776 778 779 781 783 785 786 788 789 790 792 793 796 797 799 801 803 805 807 809 810 812 814 815 817 818 819 820 822 823 824 825 827 828 829 830 831 832 833 834
713 714 716 715 714 713 714 715 716 718 721 723 725 728 731 733 735 737 740 742 745 747 749 751 753 755 756 758 759 759 760 761 762 763 763 764 765 766 767 768 769 771 772 774 775 777 779 780 782 784 785 787 788 790 791 793 795 796 798 800 802 804 805 807 809 811 812 814 815 817 818 819 820 822 823 824 825 827 828 829 830 831 832 833 834
716 716 717 716 715 717 718 719 721 723 726 727 730 733 735 736 738 741 743 745 747 749 751 753 755 756 757 758 759 759 760 761 762 763 764 764 765 766 767 768 769 771 773 775 776 778 780 782 783 784 786 787 789 791 792 794 796 798 799 801 802 804 806 808 810 811 813 814 815 816 818 819 820 822 823 824 826 827 828 829 830 831 832 833 834
720 720 720 720 721 722 724 725 727 729 730 732 734 736 738 740 742 744 746 748 750 752 753 755 757 757 758 758 759 760 760 761 762 763 764 765 766 766 767 769 770 772 774 776 778 780 782 783 785 786 787 788 790 792 793 795 797 799 801 803 804 806 807 809 811 812 813 814 816 817 818 819 820 822 823 825 826 827 829 830 830 831 832 833 833
725 726 726 727 727 729 730 731 732 733 735 736 738 740 742 744 745 747 749 751 752 754 755 756 757 758 758 759 760 760 761 762 763 764 765 765 766 767 768 770 771 773 775 777 779 781 783 785 786 787 788 790 791 793 795 797 799 800 802 804 805 807 808 810 811 812 814 815 816 817 818 819 820 822 823 825 826 827 829 830 830 831 832 833 833
731 731 731 731 732 733 735 735 736 737 739 740 742 743 745 747 749 751 752 753 754 755 756 757 758 758 759 760 761 762 763 763 764 765 765 766 767 768 770 772 773 775 777 779 781 783 785 786 788 789 790 791 793 794 796 798 800 801 803 805 806 808 809 810 811 812 814 815 816 817 818 819 820 822 823 824 826 827 828 829 830 831 832 833 833
735 735 735 736 736 737 738 739 740 741 742 744 745 747 749 750 752 753 754 755 756 756 757 758 759 760 760 761 762 763 764 765 765 766 767 768 769 771 772 774 776 778 779 781 783 784 786 788 789 790 792 793 794 796 797 799 801 802 804 806 807 808 809 810 811 813 814 815 816 817 818 819 820 822 823 824 825 826 827 829 829 830 831 832 832
740 740 740 740 740 741 742 743 744 745 746 747 749 750 751 753 754 755 756 756 757 757 758 759 760 761 762 763 764 764 765 766 767 768 769 770 771 773 775 776 778 780 781 783 785 786 788 789 790 792 793 794 796 797 799 800 802 803 805 806 807 808 809 810 811 813 814 815 816 817 818 819 820 821 822 823 825 826 827 828 829 830 830 831 832
744 744 744 744 745 746 746 747 748 749 750 751 751 753 754 755 756 757 757 758 758 759 760 761 761 762 763 764 765 766 767 768 769 770 771 772 774 775 777 779 780 782 784 785 786 787 789 790 791 793 794 795 797 799 800 801 803 804 805 806 807 808 809 810 811 812 814 815 816 817 817 818 819 820 822 823 824 825 827 827 828 829 830 830 831